Glasgow, MT

2:56 PM MST on November 18, 2017 (GMT -0700)
Wokal-Glasgow International

Weather History for KGGW - February, 2014

Change the Weather History Date:

Friday, February 21, 2014

  Actual Average Record
Temperature  
Mean Temperature 22 °F 21 °F  
Max Temperature 28 °F 31 °F 63 °F (1995)
Min Temperature 16 °F 11 °F -43 °F (1918)
Degree Days  
Heating Degree Days 43 44  
Month to date heating degree days 1105 986  
Since 1 July heating degree days 6237 6075  
Cooling Degree Days 0 0  
Month to date cooling degree days 0 0  
Year to date cooling degree days 0 0  
Moisture  
Dew Point 20 °F    
Average Humidity 85    
Maximum Humidity 96    
Minimum Humidity 73    
Precipitation  
Precipitation 0.02 in 0.01 in 0.50 in (1899)
Month to date precipitation 0.16 0.18  
Year to date precipitation 0.29 0.55  
Snow  
Snow 0.10 in 0.20 in 2.30 in (1922)
Month to date snowfall 2.8 3.3  
Since 1 July snowfall 22.7 25.9  
Snow Depth T in    
Sea Level Pressure  
Sea Level Pressure 29.85 in    
Wind  
Wind Speed 7 mph (NE)    
Max Wind Speed 17 mph    
Max Gust Speed 20 mph    
Visibility 8 miles    
Events Snow    
T = Trace of Precipitation, MM = Missing Value Source: NWS Daily Summary

Daily Weather History Graph

Daily Weather History Graph

Search for Another Location

Airport or City:

Trip Planner

Search our weather history database for the weather conditions in past years. The results will help you decide how hot, cold, wet, or windy it might be!

Date:

Astronomy

Feb. 21, 2014 Rise Set
Actual Time 7:02 AM MST 5:38 PM MST
Civil Twilight 6:30 AM MST 6:10 PM MST
Nautical Twilight 5:54 AM MST 6:46 PM MST
Astronomical Twilight 5:18 AM MST 7:22 PM MST
Moon 12:04 AM MST (2/21) 9:57 AM MST (2/21)
Length of Visible Light 11h 39m
Length of Day
10h 35m
Waning Gibbous, 60% of the Moon is Illuminated
Feb 21
Waning Gibbous
Feb 22
Last Quarter
Mar 1
New
Mar 8
First Quarter
Mar 16
Full

Hourly Weather History & Observations

Time (MST) Temp. Windchill Dew Point Humidity Pressure Visibility Wind Dir Wind Speed Gust Speed Precip Events Conditions
12:35 AM 26.1 °F 21.9 °F 24.1 °F 92% 29.66 in 10.0 mi SE 3.5 mph - N/A   Mostly Cloudy
12:53 AM 25.0 °F 19.3 °F 23.0 °F 92% 29.75 in 10.0 mi East 4.6 mph - N/A   Mostly Cloudy
1:53 AM 23.0 °F 18.4 °F 21.0 °F 92% 29.75 in 10.0 mi ENE 3.5 mph - N/A   Mostly Cloudy
2:17 AM 24.1 °F - 21.0 °F 88% 29.67 in 10.0 mi Calm Calm - N/A   Mostly Cloudy
2:53 AM 24.1 °F 19.7 °F 23.0 °F 96% 29.75 in 10.0 mi SSE 3.5 mph - N/A   Overcast
3:53 AM 24.1 °F - 21.9 °F 91% 29.77 in 10.0 mi Calm Calm - N/A   Overcast
4:11 AM 24.1 °F - 23.0 °F 96% 29.69 in 10.0 mi Calm Calm - N/A   Overcast
4:38 AM 25.0 °F - 24.1 °F 96% 29.69 in 10.0 mi Calm Calm - N/A   Overcast
4:53 AM 26.1 °F - 24.1 °F 92% 29.78 in 10.0 mi Calm Calm - N/A   Overcast
5:11 AM 26.1 °F 20.5 °F 24.1 °F 92% 29.70 in 10.0 mi ESE 4.6 mph - N/A   Overcast
5:21 AM 26.1 °F 18.4 °F 24.1 °F 92% 29.70 in 10.0 mi SE 6.9 mph - N/A   Overcast
5:53 AM 24.1 °F 18.2 °F 21.9 °F 91% 29.80 in 10.0 mi SE 4.6 mph - N/A   Overcast
6:07 AM 23.0 °F 14.7 °F 21.0 °F 92% 29.71 in 10.0 mi ESE 6.9 mph - N/A   Overcast
6:53 AM 21.9 °F 14.5 °F 19.9 °F 92% 29.81 in 10.0 mi ESE 5.8 mph - N/A   Overcast
7:53 AM 21.9 °F 13.4 °F 18.0 °F 85% 29.82 in 10.0 mi ESE 6.9 mph - N/A   Overcast
8:53 AM 23.0 °F 14.7 °F 18.0 °F 81% 29.83 in 10.0 mi SE 6.9 mph - N/A   Overcast
9:53 AM 23.0 °F 18.4 °F 18.0 °F 81% 29.85 in 9.0 mi SE 3.5 mph - N/A   Overcast
10:13 AM 24.1 °F 17.0 °F 19.0 °F 81% 29.75 in 2.5 mi ESE 5.8 mph - 0.00 in Snow Light Snow
10:20 AM 24.1 °F 16.0 °F 19.0 °F 81% 29.75 in 6.0 mi East 6.9 mph - 0.00 in Snow Light Snow
10:53 AM 25.0 °F 19.3 °F 19.0 °F 78% 29.86 in 4.0 mi ESE 4.6 mph - 0.00 in Snow Light Snow
11:09 AM 25.0 °F 19.3 °F 19.9 °F 81% 29.76 in 4.0 mi East 4.6 mph - 0.00 in Snow Light Snow
11:53 AM 25.0 °F 19.3 °F 19.9 °F 81% 29.87 in 9.0 mi ESE 4.6 mph - 0.00 in   Overcast
12:53 PM 26.1 °F - 21.0 °F 81% 29.88 in 10.0 mi Calm Calm - N/A   Overcast
1:53 PM 27.0 °F 23.0 °F 21.9 °F 81% 29.89 in 5.0 mi SE 3.5 mph - 0.00 in Snow Light Snow
2:11 PM 27.0 °F - 21.9 °F 81% 29.79 in 3.0 mi Calm Calm - 0.00 in Snow Light Snow
2:18 PM 28.0 °F 22.8 °F 21.9 °F 78% 29.79 in 2.5 mi Variable 4.6 mph - 0.00 in Snow Light Snow
2:27 PM 27.0 °F - 21.9 °F 81% 29.80 in 4.0 mi Calm Calm - 0.00 in Snow Light Snow
2:44 PM 27.0 °F 23.0 °F 23.0 °F 85% 29.81 in 2.0 mi SW 3.5 mph - 0.01 in Snow Light Snow
2:53 PM 27.0 °F 23.0 °F 23.0 °F 85% 29.91 in 2.0 mi West 3.5 mph - 0.01 in Snow Light Snow
2:57 PM 27.0 °F 21.6 °F 23.0 °F 85% 29.81 in 1.2 mi West 4.6 mph - 0.00 in Snow Light Snow
3:08 PM 28.0 °F 20.0 °F 24.1 °F 85% 29.82 in 0.8 mi NNW 8.1 mph - 0.01 in Snow Light Snow
3:14 PM 27.0 °F 16.7 °F 24.1 °F 89% 29.82 in 1.5 mi NW 11.5 mph - 0.01 in Snow Light Snow
3:19 PM 27.0 °F 16.1 °F 23.0 °F 85% 29.82 in 3.0 mi NW 12.7 mph - 0.01 in Snow Light Snow
3:33 PM 27.0 °F 16.1 °F 21.9 °F 81% 29.83 in 9.0 mi NW 12.7 mph - 0.01 in   Overcast
3:53 PM 27.0 °F 15.2 °F 21.0 °F 78% 29.94 in 10.0 mi NW 15.0 mph - 0.01 in   Overcast
4:53 PM 25.0 °F 14.8 °F 19.0 °F 78% 29.95 in 10.0 mi NW 10.4 mph - N/A   Overcast
5:53 PM 24.1 °F 13.7 °F 19.0 °F 81% 29.97 in 10.0 mi NW 10.4 mph - N/A   Overcast
6:13 PM 23.0 °F 12.4 °F 19.0 °F 85% 29.88 in 10.0 mi NW 10.4 mph - N/A   Overcast
6:44 PM 23.0 °F 12.4 °F 17.1 °F 78% 29.89 in 10.0 mi NNW 10.4 mph - N/A   Overcast
6:53 PM 21.9 °F 9.2 °F 16.0 °F 78% 30.01 in 10.0 mi NNW 13.8 mph - N/A   Overcast
7:53 PM 19.0 °F 5.0 °F 12.9 °F 77% 30.04 in 9.0 mi North 15.0 mph - N/A   Overcast
8:53 PM 19.0 °F 9.0 °F 12.9 °F 77% 30.06 in 10.0 mi North 8.1 mph - 0.00 in   Overcast
9:48 PM 17.6 °F 8.2 °F 12.2 °F 79% 29.96 in 9.0 mi North 6.9 mph - N/A   Overcast
9:53 PM 18.0 °F 6.9 °F 12.0 °F 78% 30.07 in 8.0 mi North 9.2 mph - 0.00 in Snow Light Snow
10:53 PM 17.1 °F 5.0 °F 10.9 °F 77% 30.09 in 9.0 mi North 10.4 mph - 0.00 in   Overcast
11:53 PM 16.0 °F 2.9 °F 10.0 °F 77% 30.10 in 10.0 mi NNW 11.5 mph - N/A   Overcast